215  
ASUS41 KCLE 130012  
RWRCLE  
OHIO REGIONAL WEATHER ROUNDUP  
NATIONAL WEATHER SERVICE WILMINGTON, OH  
800 PM EDT WED AUG 12 2020  
 
NOTE: "FAIR" INDICATES FEW OR NO CLOUDS BELOW 12,000 FEET WITH NO  
SIGNIFICANT WEATHER AND/OR S TO VISIBILITY
.  
 
OHZ001>008-015>018-024>027-034-035-043-044-130100-  
NORTHWEST OHIO  
 
CITY SKY/WX TMP DP RH WIND PRES REMARKS
 
DEFIANCE FAIR 81 55 40 E8 30.07S  
FINDLAY FAIR 81 59 47 NE10 30.07R  
TOLEDO EXPRESS FAIR 80 51 36 E8 30.08S  
TOLEDO EXEC FAIR 77 55 46 NE7 30.09F  
LIMA FAIR 78 64 61 NE6 30.08R  

 
 
OHZ009>014-019>023-028>033-038-089-130100-  
NORTHEAST OHIO  
 
CITY SKY/WX TMP DP RH WIND PRES REMARKS
 
CLE-HOPKINS MOCLDY 77 56 48 NE9 30.11S  
CLE-LAKEFRONT FAIR 78 60 53 NE8 30.08S  
CUY CO. ARPT PTCLDY 75 57 53 E6 30.10S  
LORAIN-ELYRIA FAIR 75 55 49 E6 30.10S  
ASHTABULA FAIR 73 59 61 NE3 30.12S  
AKRON-CANTON FAIR 78 61 55 NE8 30.10R  
WOOSTER FAIR 78 59 51 N5 30.10S  
MANSFIELD FAIR 77 59 53 NE6 30.10S  
YOUNGSTOWN MOCLDY 75 59 57 N5 30.11R  

 
 
OHZ042-051>053-060>062-070>072-077>081-130100-  
SOUTHWEST OHIO  
 
CITY SKY/WX TMP DP RH WIND PRES REMARKS
 
CINC-COVINGTON MOCLDY 82 69 64 N8 30.04R  
CINC-LUNKEN FAIR 82 72 71 NE3 30.02S  
HAMILTON FAIR 82 69 64 N9 30.04S  
DAYTON FAIR 80 67 64 N8 30.08R  
WRIGHT-PAT AFB MOCLDY 81 65 58 N6 30.05S  
DAYTON GENERAL FAIR 82 67 60 N8 30.04S  
WILMINGTON FAIR 79 70 74 NE5 30.05S  

 
 
OHZ036-037-039>041-045>050-054>059-063>069-073>076-082>088-130100-  
CENTRAL AND SOUTHEAST OHIO  
 
CITY SKY/WX TMP DP RH WIND PRES REMARKS
 
COLUMBUS MOCLDY 82 62 50 NE8 30.04S  
OSU AIRPORT FAIR 79 65 62 N10 30.05S  
BOLTON FIELD FAIR 80 67 64 N8 30.06S  
RICKENBACK AFB MOCLDY 80 66 61 E6 30.04S  
NEWARK FAIR 83 63 50 VRB3 30.05S  
MARION FAIR 75 62 64 NE7 30.09S  
LANCASTER FAIR 81 69 67 NE3 30.05S  
ZANESVILLE FAIR 80 67 64 N5 30.06R  
NEW PHILLY FAIR 80 67 64 NE7 30.08R  

 
 
 
CLICK HERE TO GO TO PREVIOUS BULLETINS.

The Nexlab OH Page
The Nexlab PA Page Main Text Page